User: anonymous   Login
Location: Trout Lake
(45.9980°N, 121.5270°W)
Time: 05:27:20
(UTC-07:00)
Language:

ATLAS 2AS CENTAUR R/B - Orbit

View from above orbital plane
View from above orbital plane
View from above satellite
View from above satellite

Ground track
Ground track

The orbit data is extracted from the following two-line orbital elements,

1 28096U 03054B   24067.83066208 0.00000000  00000-0  00000-0 0    02
2 28096  63.6781 333.9777 0131147 174.6433 185.3567 13.40957396    04
Epoch (UTC): 07 March 2024 19:56:09
Eccentricity: 0.0131147
inclination: 63.6781°
perigee height: 1007 km
apogee height: 1204 km
right ascension of ascending node: 333.9777°
argument of perigee: 174.6433°
revolutions per day: 13.40957396
mean anomaly at epoch: 185.3567°
orbit number at epoch: 0

The dashed part of the orbit path shows where the satellite is in the earth's shadow,  

DLR